Regional Weather Roundup
Issued by NWS

Home | Current Version | Previous Version | Text Only | Print | Product List | Glossary On
Versions: 1 2 3 4 5 6 7 8 9 10 11 12 13 14 15 16 17 18 19 20 21 22 23 24 25 26 27 28 29 30 31 32 33 34 35 36 37 38 39 40 41 42 43 44 45 46 47 48 49 50
000
ASUS45 KREV 111510
RWRNV
NEVADA REGIONAL WEATHER ROUNDUP
NATIONAL WEATHER SERVICE RENO NV
700 AM PST MON DEC 11 2017

NOTE: "FAIR" INDICATES FEW OR NO CLOUDS BELOW 12,000 FEET WITH NO
SIGNIFICANT WEATHER AND/OR OBSTRUCTIONS TO VISIBILITY.

NVZ001-003-004-111600-
WESTERN NEVADA

CITY           SKY/WX    TMP DP  RH WIND       PRES   REMARKS
RENO           PTCLDY    19  15  84 CALM      30.54R
CARSON CITY    FAIR      16  12  86 CALM      30.55R
MINDEN         FAIR       7   1  78 CALM      30.55R
PYRAMID LAKE     N/A     32 N/A N/A W7          N/A
FALLON         CLOUDY    11   5  77 CALM      30.55R
LOVELOCK       CLOUDY     7   4  87 CALM      30.56R
HAWTHORNE      CLEAR     18  14  86 SW5       30.53S
$$

NVZ002-CAZ072-073-111600-
NORTHERN AND CENTRAL SIERRA

CITY           SKY/WX    TMP DP  RH WIND       PRES   REMARKS
S. LAKE TAHOE  PTCLDY    12   8  84 S5        30.50R
TRUCKEE        CLEAR      9   7  92 CALM      30.51S
SQUAW VLY 8000   N/A     37  -9  13 N3          N/A
SUSANVILLE     CLEAR     16  12  86 W3        30.55R
BLUE CANYON    CLEAR     54 -16   5 VRB5      30.41S
MAMMOTH LAKES  FAIR       7   1  76 N6        30.52R
$$

NVZ030-031-036-111600-
NORTHERN NEVADA

CITY           SKY/WX    TMP DP  RH WIND       PRES   REMARKS
ELKO           MOCLDY    10   6  84 CALM      30.57R
WINNEMUCCA     CLOUDY     7   1  76 E3        30.55R
WENDOVER       MOCLDY     9   6  88 CALM      30.62S
$$

NVZ035-037-111600-
CENTRAL NEVADA

CITY           SKY/WX    TMP DP  RH WIND       PRES   REMARKS
ELY            MOCLDY     4 -10  52 S13       30.56R WCI -13
EUREKA           N/A      8   1  73 SW9       30.54S
$$

NVZ013-014-111600-
SOUTH CENTRAL NEVADA

CITY           SKY/WX    TMP DP  RH WIND       PRES   REMARKS
TONOPAH        CLOUDY    19 -12  24 N12       30.49R
$$

NVZ017-020-022-111600-
SOUTHERN NEVADA

CITY           SKY/WX    TMP DP  RH WIND       PRES   REMARKS
LAS VEGAS      PTCLDY    41   3  20 W8        30.39R
N. LAS VEGAS   CLEAR     39   4  23 NW8       30.40R
NELLIS AFB     CLEAR     34  -1  22 CALM      30.40R
HENDERSON      PTCLDY    36   4  26 S9        30.41R
MERCURY        PTCLDY    40  -8  13 E9        30.39S
$$



USA.gov is the U.S. government's official web portal to all federal, state and local government web resources and services.